Weather History for Grand Island, NE

Change the Weather History Date:

Sunday, February 9, 2014

  Actual Average Record
Temperature  
Mean Temperature 14 °F 27 °F  
Max Temperature 18 °F 38 °F 70 °F (1996)
Min Temperature 9 °F 17 °F -21 °F (1994)
Degree Days  
Heating Degree Days 51 38  
Month to date heating degree days 489 346  
Since 1 July heating degree days 4168 4102  
Cooling Degree Days 0 0  
Month to date cooling degree days 0 0  
Year to date cooling degree days 0 0  
Moisture  
Dew Point 4 °F    
Average Humidity 77    
Maximum Humidity 88    
Minimum Humidity 66    
Precipitation  
Precipitation 0.06 in 0.02 in 0.65 in (1965)
Month to date precipitation 0.19 0.19  
Year to date precipitation 0.51 0.72  
Snow  
Snow 2.00 in 0.30 in 9.10 in (1965)
Month to date snowfall 4.8 2.2  
Since 1 July snowfall 11.7 18.0  
Snow Depth 2.00 in    
Sea Level Pressure  
Sea Level Pressure 30.38 in    
Wind  
Wind Speed 10 mph (North)    
Max Wind Speed 17 mph    
Max Gust Speed 20 mph    
Visibility 6 miles    
Events Snow    
T = Trace of Precipitation, MM = Missing Value Source: NWS Daily Summary

Daily Weather History Graph

Daily Weather History Graph

Search for Another Location

Airport:

Trip Planner

Search our weather history database for the weather conditions in past years. The results will help you decide how hot, cold, wet, or windy it might be!

Date:

Astronomy

Feb. 09, 2014 Rise Set
Actual Time 7:35 AM CST 6:00 PM CST
Civil Twilight 7:06 AM CST 6:29 PM CST
Nautical Twilight 6:34 AM CST 7:01 PM CST
Astronomical Twilight 6:02 AM CST 7:33 PM CST
Moon 1:40 PM CST (2/9) 3:42 AM CST (2/9)
Length of Visible Light 11h 22m
Length of Day
10h 25m
Waxing Gibbous, 77% of the Moon is Illuminated
Feb 9
Waxing Gibbous
Feb 14
Full
Feb 22
Last Quarter
Mar 1
New
Mar 8
First Quarter

Hourly Weather History & Observations

Time (CST) Temp. Windchill Dew Point Humidity Pressure Visibility Wind Dir Wind Speed Gust Speed Precip Events Conditions
12:53 AM 18.0 °F 7.7 °F 12.9 °F 81% 30.31 in 9.0 mi NNW 8.1 mph - N/A   Mostly Cloudy
1:53 AM 16.0 °F 5.3 °F 12.0 °F 84% 30.32 in 8.0 mi NNW 8.1 mph - N/A   Scattered Clouds
2:53 AM 17.1 °F 4.3 °F 10.9 °F 77% 30.30 in 10.0 mi NNE 11.5 mph - N/A   Overcast
3:53 AM 16.0 °F 1.7 °F 10.9 °F 81% 30.30 in 10.0 mi North 13.8 mph - N/A   Overcast
4:20 AM 16.0 °F 4.4 °F 10.0 °F 77% 30.22 in 10.0 mi North 9.2 mph - N/A   Overcast
4:53 AM 15.1 °F 0.5 °F 9.0 °F 77% 30.31 in 10.0 mi North 13.8 mph - N/A   Overcast
5:43 AM 14.0 °F -0.2 °F 8.1 °F 77% 30.22 in 10.0 mi North 12.7 mph - N/A   Overcast
5:53 AM 14.0 °F -0.8 °F 8.1 °F 77% 30.32 in 10.0 mi North 13.8 mph - N/A   Overcast
6:45 AM 12.9 °F 1.6 °F 7.0 °F 77% 30.24 in 10.0 mi NNE 8.1 mph - N/A   Overcast
6:53 AM 12.9 °F 1.6 °F 6.1 °F 74% 30.34 in 10.0 mi NNE 8.1 mph - N/A   Overcast
7:53 AM 12.9 °F 0.7 °F 6.1 °F 74% 30.38 in 10.0 mi NNE 9.2 mph - N/A   Overcast
8:50 AM 10.4 °F -3.3 °F 3.2 °F 73% 30.31 in 2.0 mi NNE 10.4 mph - 0.00 in Snow Light Snow
8:53 AM 10.9 °F -1.8 °F 5.0 °F 77% 30.41 in 1.5 mi NNE 9.2 mph - 0.00 in Snow Light Snow
9:15 AM 10.0 °F -5.2 °F 5.0 °F 80% 30.31 in 0.5 mi NNE 12.7 mph - 0.01 in Snow Snow
9:30 AM 10.0 °F -4.5 °F 3.9 °F 76% 30.32 in 0.8 mi NNE 11.5 mph - 0.02 in Snow Light Snow
9:43 AM 9.0 °F -7.9 °F 3.0 °F 77% 30.33 in 1.0 mi North 15.0 mph - 0.02 in Snow Light Snow
9:50 AM 8.6 °F -8.9 °F 3.2 °F 79% 30.33 in 0.8 mi North 16.1 mph - 0.02 in Snow Light Snow
9:53 AM 9.0 °F -8.5 °F 3.0 °F 77% 30.44 in 0.8 mi North 16.1 mph - 0.02 in Snow Light Snow
10:12 AM 9.0 °F -7.9 °F 3.0 °F 77% 30.32 in 1.2 mi North 15.0 mph - 0.01 in Snow Light Snow
10:53 AM 9.0 °F -7.3 °F 3.0 °F 77% 30.44 in 1.8 mi North 13.8 mph - 0.01 in Snow Light Snow
11:00 AM 9.0 °F -7.3 °F 3.0 °F 77% 30.34 in 3.0 mi North 13.8 mph - 0.00 in Snow Light Snow
11:29 AM 9.0 °F -7.3 °F 1.9 °F 73% 30.35 in 2.0 mi North 13.8 mph - 0.01 in Snow Light Snow
11:42 AM 9.0 °F -7.9 °F 1.9 °F 73% 30.35 in 5.0 mi North 15.0 mph - 0.01 in Snow Light Snow
11:53 AM 9.0 °F -6.6 °F 1.9 °F 73% 30.46 in 1.8 mi North 12.7 mph - 0.01 in Snow Light Snow
12:03 PM 9.0 °F -5.9 °F 3.0 °F 77% 30.35 in 0.5 mi North 11.5 mph - 0.00 in Snow Snow
12:17 PM 9.0 °F -5.1 °F 3.0 °F 77% 30.34 in 1.5 mi North 10.4 mph - 0.01 in Snow Light Snow
12:53 PM 9.0 °F -6.6 °F 1.9 °F 73% 30.45 in 1.8 mi North 12.7 mph - 0.02 in Snow Light Snow
12:58 PM 9.0 °F -7.3 °F 1.9 °F 73% 30.33 in 2.0 mi North 13.8 mph - 0.00 in Snow Light Snow
1:09 PM 9.0 °F -7.3 °F 1.9 °F 73% 30.33 in 3.0 mi NNE 13.8 mph - 0.00 in Snow Light Snow
1:53 PM 10.0 °F -3.7 °F 3.0 °F 73% 30.43 in 6.0 mi NNE 10.4 mph - 0.00 in Snow Light Snow
2:53 PM 10.0 °F -2.9 °F 3.0 °F 73% 30.41 in 8.0 mi North 9.2 mph - 0.00 in Snow Light Snow
3:53 PM 10.0 °F -0.9 °F 3.0 °F 73% 30.42 in 10.0 mi NNE 6.9 mph - 0.00 in   Overcast
4:53 PM 10.9 °F -2.6 °F 3.0 °F 70% 30.43 in 10.0 mi North 10.4 mph - N/A   Overcast
5:53 PM 10.9 °F 0.2 °F 3.0 °F 70% 30.45 in 10.0 mi North 6.9 mph - N/A   Overcast
6:53 PM 10.9 °F -0.8 °F 3.0 °F 70% 30.47 in 10.0 mi North 8.1 mph - N/A   Overcast
7:53 PM 10.9 °F 0.2 °F 3.0 °F 70% 30.48 in 10.0 mi North 6.9 mph - N/A   Overcast
8:53 PM 10.9 °F -0.8 °F 3.9 °F 73% 30.50 in 10.0 mi North 8.1 mph - N/A   Overcast
9:53 PM 10.9 °F -1.8 °F 3.0 °F 70% 30.50 in 10.0 mi North 9.2 mph - N/A   Overcast
10:53 PM 10.0 °F -3.7 °F 1.0 °F 67% 30.51 in 10.0 mi NNE 10.4 mph - N/A   Overcast
11:53 PM 9.0 °F -5.1 °F 1.0 °F 70% 30.51 in 10.0 mi NNE 10.4 mph - N/A   Overcast